Flag for U.S.A. Weather past 2 weeks in Barrow, Alaska, U.S.A.

Now
26 °F

Light snow. Ice fog.


Feels Like: 17 °F
Forecast: 17 / 28 °F
Wind: 9 mph from West

Location: Post Rogers Memorial Airport


UV Index: 0 (Low)

Visibility: 1 mi


Pressure: 29.82 "Hg

Humidity: 88%

Dew point: 23 °F

Location of BarrowLocation

Historic Weather in Barrow

°F

Barrow temperature yesterday

Maximum temperature yesterday: 26 °F (at 12:53 PM)
Minimum temperature yesterday: 11 °F (at 1:53 AM)
Average temperature yesterday: 20 °F

Past Weeks' High & Low Weather Summary

 TemperatureHumidityPressure
High26 °F (Apr 14, 12:53 PM)100% (Apr 9, 9:53 AM)30.38 "Hg (Apr 9, 9:53 AM)
Low-27 °F (Apr 9, 8:53 AM)65% (Apr 4, 3:53 PM)29.75 "Hg (Apr 13, 11:53 PM)
Average-4 °F79%29.97 "Hg
* Reported Mar 31 6:53 PM — Apr 15 6:53 PM, Barrow, Weather by CustomWeather, © 2014

Note: Actual official high and low records may vary slightly from our data, if they occured in-between our weather recording intervals... More about our weather records

Advertising

Historic Weather Conditions — Data for Previous 24 hours

 ConditionsComfort  
Time TempWeatherWind HumidityBarometerVisibility
6:53 PM
Apr 15
25 °FMostly cloudy.9 mph88%29.82 "Hg10 mi
5:53 PM25 °FPartly sunny.7 mph81%29.81 "Hg10 mi
4:53 PM26 °FOvercast.6 mph81%29.81 "Hg10 mi
2:53 PM26 °FOvercast.6 mph88%29.80 "Hg10 mi
1:53 PM26 °FOvercast.5 mph88%29.81 "Hg10 mi
12:53 PM25 °FOvercast.8 mph92%29.80 "Hg10 mi
11:53 AM24 °FOvercast.6 mph88%29.80 "Hg10 mi
10:53 AM23 °FMostly cloudy.5 mph92%29.81 "Hg10 mi
9:53 AM19 °FPartly sunny.5 mph85%29.80 "Hg10 mi
8:53 AM22 °FPartly sunny.5 mph89%29.81 "Hg10 mi
7:53 AM23 °FOvercast.5 mph92%29.81 "Hg10 mi
6:53 AM23 °FOvercast.9 mph88%29.81 "Hg10 mi
5:53 AM22 °FOvercast.8 mph92%29.80 "Hg10 mi
4:53 AM22 °FOvercast.7 mph92%29.80 "Hg10 mi
3:53 AM24 °FOvercast.5 mph91%29.81 "Hg10 mi
3:01 AM23 °FIce fog.6 mph92%29.81 "Hg2 mi
2:53 AM22 °FIce fog.5 mph92%29.81 "Hg6 mi
1:53 AM22 °FLow clouds.6 mph92%29.81 "Hg10 mi
12:53 AM21 °FOvercast.7 mph88%29.81 "Hg10 mi
11:53 PM
Apr 14
20 °FOvercast.6 mph89%29.81 "Hg10 mi
10:53 PM19 °FPartly sunny.6 mph92%29.80 "Hg10 mi
9:53 PM21 °FMore clouds than sun.5 mph92%29.81 "Hg10 mi
8:53 PM23 °FIce fog.6 mph92%29.80 "Hg5 mi
8:00 PM24 °FIce fog.6 mph96%29.80 "Hg0 mi
Weather by CustomWeather, © 2014

See weather overview